Simultaneous Nadir Overpasses (SNOs) Predictions

Prediction of SNOs between TERRA and METOP-C Satellite Orbit:

Table of predicted SNOs for the next 14.0 days since TLE Epoch: 3/28/2020
Index Date (TERRA) Time (TERRA) Lat,Lon (TERRA) SZA (TERRA ) Date (METOP-C) Time (METOP-C) Lat,Lon (METOP-C) SZA (METOP-C ) Distance(km) Time Diff (sec)
1 03/30/2020 19:15:08 -81.30, 118.52 100.20 03/30/2020 19:14:59 -81.30, 118.45 100.21 1.32 9
2 03/30/2020 20:04:34 81.30, -73.76 79.81 03/30/2020 20:05:39 81.30, -73.66 79.85 1.73 65
3 04/02/2020 13:59:55 81.29, 17.20 78.75 04/02/2020 13:58:43 81.29, 17.22 78.72 0.24 72
4 04/02/2020 14:49:21 -81.31,-174.81 101.22 04/02/2020 14:49:22 -81.30,-174.99 101.24 3.24 1
5 04/05/2020 09:34:08 81.30, 83.80 77.73 04/05/2020 09:33:06 81.29, 83.76 77.69 0.80 62
6 04/05/2020 10:23:35 -81.30,-108.57 102.29 04/05/2020 10:23:45 -81.30,-108.44 102.27 2.30 10
7 04/08/2020 05:08:20 81.30, 150.34 76.71 04/08/2020 05:07:28 81.29, 150.29 76.68 1.29 52
8 04/08/2020 05:57:47 -81.30, -42.01 103.30 04/08/2020 05:58:07 -81.30, -41.90 103.28 1.85 20
9 04/11/2020 00:42:34 81.29,-143.54 75.65 04/11/2020 00:41:52 81.29,-143.59 75.63 1.11 42




NCC Satellite Simultaneous Nadir Overpasses (SNOs) Prediction Service
